owner,sensor,date,latitude,longitude,vertical_datum,sea_water_temperature,qcFlag 
SCCF RECON,ioos:station:SCCF:13:1,2019-03-12T20:00:00Z,26.5255,-82.0032,2.33,25.48,11111222 
SCCF RECON,ioos:station:SCCF:13:1,2019-03-12T21:00:00Z,26.5255,-82.0032,2.33,25.65,11111222 
SCCF RECON,ioos:station:SCCF:13:1,2019-03-12T22:00:00Z,26.5255,-82.0032,2.33,25.92,11111222 
SCCF RECON,ioos:station:SCCF:13:1,2019-03-12T23:00:00Z,26.5255,-82.0032,2.33,25.82,11111222 
SCCF RECON,ioos:station:SCCF:13:1,2019-03-13T04:00:00Z,26.5255,-82.0032,2.33,25.43,11111222 
SCCF RECON,ioos:station:SCCF:13:1,2019-03-13T05:00:00Z,26.5255,-82.0032,2.33,25.28,11111222 
SCCF RECON,ioos:station:SCCF:13:1,2019-03-13T06:00:00Z,26.5255,-82.0032,2.33,25.21,11111222 
SCCF RECON,ioos:station:SCCF:13:1,2019-03-13T07:00:00Z,26.5255,-82.0032,2.33,25.14,11111222 
SCCF RECON,ioos:station:SCCF:13:1,2019-03-13T08:00:00Z,26.5255,-82.0032,2.33,25.07,11111222 
SCCF RECON,ioos:station:SCCF:13:1,2019-03-13T09:00:00Z,26.5255,-82.0032,2.33,24.79,11111222 
SCCF RECON,ioos:station:SCCF:13:1,2019-03-13T10:00:00Z,26.5255,-82.0032,2.33,24.98,11111222 
SCCF RECON,ioos:station:SCCF:13:1,2019-03-13T11:00:00Z,26.5255,-82.0032,2.33,24.94,11111222 
SCCF RECON,ioos:station:SCCF:13:1,2019-03-13T12:00:00Z,26.5255,-82.0032,2.33,24.95,11111222 
SCCF RECON,ioos:station:SCCF:13:1,2019-03-13T13:00:00Z,26.5255,-82.0032,2.33,24.81,11111222 
SCCF RECON,ioos:station:SCCF:13:1,2019-03-13T14:00:00Z,26.5255,-82.0032,2.33,24.79,11111222 
SCCF RECON,ioos:station:SCCF:13:1,2019-03-13T15:00:00Z,26.5255,-82.0032,2.33,24.81,11111222 
SCCF RECON,ioos:station:SCCF:13:1,2019-03-13T16:00:00Z,26.5255,-82.0032,2.33,24.83,11111222 
SCCF RECON,ioos:station:SCCF:13:1,2019-03-13T17:00:00Z,26.5255,-82.0032,2.33,24.91,11111222 
SCCF RECON,ioos:station:SCCF:13:1,2019-03-13T18:00:00Z,26.5255,-82.0032,2.33,25.17,11111222 
SCCF RECON,ioos:station:SCCF:13:1,2019-03-13T19:00:00Z,26.5255,-82.0032,2.33,25.81,11111222 
SCCF RECON,ioos:station:SCCF:13:1,2019-03-13T20:00:00Z,26.5255,-82.0032,2.33,25.67,11111222 
SCCF RECON,ioos:station:SCCF:13:1,2019-03-13T21:00:00Z,26.5255,-82.0032,2.33,25.32,11111222 
SCCF RECON,ioos:station:SCCF:13:1,2019-03-13T22:00:00Z,26.5255,-82.0032,2.33,25.56,11111222 
SCCF RECON,ioos:station:SCCF:13:1,2019-03-13T23:00:00Z,26.5255,-82.0032,2.33,25.47,11111222 
SCCF RECON,ioos:station:SCCF:13:1,2019-03-14T04:00:00Z,26.5255,-82.0032,2.33,24.8,11111222 
SCCF RECON,ioos:station:SCCF:13:1,2019-03-14T05:00:00Z,26.5255,-82.0032,2.33,24.76,11111222 
SCCF RECON,ioos:station:SCCF:13:1,2019-03-14T06:00:00Z,26.5255,-82.0032,2.33,24.74,11111222 
SCCF RECON,ioos:station:SCCF:13:1,2019-03-14T07:00:00Z,26.5255,-82.0032,2.33,24.68,11111222 
SCCF RECON,ioos:station:SCCF:13:1,2019-03-14T08:00:00Z,26.5255,-82.0032,2.33,24.56,11111222 
SCCF RECON,ioos:station:SCCF:13:1,2019-03-14T09:00:00Z,26.5255,-82.0032,2.33,24.45,11111222 
SCCF RECON,ioos:station:SCCF:13:1,2019-03-14T10:00:00Z,26.5255,-82.0032,2.33,24.44,11111222 
SCCF RECON,ioos:station:SCCF:13:1,2019-03-14T11:00:00Z,26.5255,-82.0032,2.33,24.24,11111222 
SCCF RECON,ioos:station:SCCF:13:1,2019-03-14T12:00:00Z,26.5255,-82.0032,2.33,24.2,11111222 
SCCF RECON,ioos:station:SCCF:13:1,2019-03-14T13:00:00Z,26.5255,-82.0032,2.33,24.26,11111222 
SCCF RECON,ioos:station:SCCF:13:1,2019-03-14T14:00:00Z,26.5255,-82.0032,2.33,24.16,11111222 
SCCF RECON,ioos:station:SCCF:13:1,2019-03-14T15:00:00Z,26.5255,-82.0032,2.33,24.31,11111222 
SCCF RECON,ioos:station:SCCF:13:1,2019-03-14T16:00:00Z,26.5255,-82.0032,2.33,24.56,11111222 
SCCF RECON,ioos:station:SCCF:13:1,2019-03-14T17:00:00Z,26.5255,-82.0032,2.33,24.37,11111222 
SCCF RECON,ioos:station:SCCF:13:1,2019-03-14T18:00:00Z,26.5255,-82.0032,2.33,24.66,11111222 
SCCF RECON,ioos:station:SCCF:13:1,2019-03-14T19:00:00Z,26.5255,-82.0032,2.33,24.92,11111222 
SCCF RECON,ioos:station:SCCF:13:1,2019-03-14T20:00:00Z,26.5255,-82.0032,2.33,25.44,11111222 
SCCF RECON,ioos:station:SCCF:13:1,2019-03-14T21:00:00Z,26.5255,-82.0032,2.33,25.39,11111222 
SCCF RECON,ioos:station:SCCF:13:1,2019-03-14T22:00:00Z,26.5255,-82.0032,2.33,25.15,11111222 
SCCF RECON,ioos:station:SCCF:13:1,2019-03-14T23:00:00Z,26.5255,-82.0032,2.33,25.06,11111222 
SCCF RECON,ioos:station:SCCF:13:1,2019-03-15T04:00:00Z,26.5255,-82.0032,2.33,25.32,11111222 
SCCF RECON,ioos:station:SCCF:13:1,2019-03-15T05:00:00Z,26.5255,-82.0032,2.33,25.23,11111222 
SCCF RECON,ioos:station:SCCF:13:1,2019-03-15T06:00:00Z,26.5255,-82.0032,2.33,25.15,11111222 
SCCF RECON,ioos:station:SCCF:13:1,2019-03-15T07:00:00Z,26.5255,-82.0032,2.33,25.1,11111222 
SCCF RECON,ioos:station:SCCF:13:1,2019-03-15T08:00:00Z,26.5255,-82.0032,2.33,25.03,11111222 
SCCF RECON,ioos:station:SCCF:13:1,2019-03-15T09:00:00Z,26.5255,-82.0032,2.33,24.91,11111222 
SCCF RECON,ioos:station:SCCF:13:1,2019-03-15T10:00:00Z,26.5255,-82.0032,2.33,24.81,11111222 
SCCF RECON,ioos:station:SCCF:13:1,2019-03-15T11:00:00Z,26.5255,-82.0032,2.33,24.81,11111222 
SCCF RECON,ioos:station:SCCF:13:1,2019-03-15T12:00:00Z,26.5255,-82.0032,2.33,24.76,11111222 
SCCF RECON,ioos:station:SCCF:13:1,2019-03-15T13:00:00Z,26.5255,-82.0032,2.33,24.84,11111222 
SCCF RECON,ioos:station:SCCF:13:1,2019-03-15T14:00:00Z,26.5255,-82.0032,2.33,24.93,11111222 
SCCF RECON,ioos:station:SCCF:13:1,2019-03-15T15:00:00Z,26.5255,-82.0032,2.33,24.94,11111222 
SCCF RECON,ioos:station:SCCF:13:1,2019-03-15T16:00:00Z,26.5255,-82.0032,2.33,24.94,11111222 
SCCF RECON,ioos:station:SCCF:13:1,2019-03-15T17:00:00Z,26.5255,-82.0032,2.33,24.98,11111222 
SCCF RECON,ioos:station:SCCF:13:1,2019-03-15T18:00:00Z,26.5255,-82.0032,2.33,25.01,11111222 
SCCF RECON,ioos:station:SCCF:13:1,2019-03-15T19:00:00Z,26.5255,-82.0032,2.33,24.98,11111222 
SCCF RECON,ioos:station:SCCF:13:1,2019-03-15T20:00:00Z,26.5255,-82.0032,2.33,25.09,11111222 
SCCF RECON,ioos:station:SCCF:13:1,2019-03-15T21:00:00Z,26.5255,-82.0032,2.33,25.22,11111222 
SCCF RECON,ioos:station:SCCF:13:1,2019-03-15T22:00:00Z,26.5255,-82.0032,2.33,25.18,11111222 
SCCF RECON,ioos:station:SCCF:13:1,2019-03-15T23:00:00Z,26.5255,-82.0032,2.33,25.2,11111222 
SCCF RECON,ioos:station:SCCF:13:1,2019-03-16T04:00:00Z,26.5255,-82.0032,2.33,24.97,11111222 
SCCF RECON,ioos:station:SCCF:13:1,2019-03-16T05:00:00Z,26.5255,-82.0032,2.33,25.06,11111222 
SCCF RECON,ioos:station:SCCF:13:1,2019-03-16T06:00:00Z,26.5255,-82.0032,2.33,25.02,11111222 
SCCF RECON,ioos:station:SCCF:13:1,2019-03-16T07:00:00Z,26.5255,-82.0032,2.33,24.91,11111222 
SCCF RECON,ioos:station:SCCF:13:1,2019-03-16T08:00:00Z,26.5255,-82.0032,2.33,24.96,11111222 
SCCF RECON,ioos:station:SCCF:13:1,2019-03-16T09:00:00Z,26.5255,-82.0032,2.33,24.97,11111222 
SCCF RECON,ioos:station:SCCF:13:1,2019-03-16T10:00:00Z,26.5255,-82.0032,2.33,24.96,11111222 
SCCF RECON,ioos:station:SCCF:13:1,2019-03-16T11:00:00Z,26.5255,-82.0032,2.33,24.93,11111222 
SCCF RECON,ioos:station:SCCF:13:1,2019-03-16T12:00:00Z,26.5255,-82.0032,2.33,24.89,11111222 
SCCF RECON,ioos:station:SCCF:13:1,2019-03-16T13:00:00Z,26.5255,-82.0032,2.33,24.74,11111222 
SCCF RECON,ioos:station:SCCF:13:1,2019-03-16T14:00:00Z,26.5255,-82.0032,2.33,24.91,11111222 
SCCF RECON,ioos:station:SCCF:13:1,2019-03-16T15:00:00Z,26.5255,-82.0032,2.33,24.97,11111222 
SCCF RECON,ioos:station:SCCF:13:1,2019-03-16T16:00:00Z,26.5255,-82.0032,2.33,25.04,11111222 
SCCF RECON,ioos:station:SCCF:13:1,2019-03-16T17:00:00Z,26.5255,-82.0032,2.33,25.24,11111222 
SCCF RECON,ioos:station:SCCF:13:1,2019-03-16T18:00:00Z,26.5255,-82.0032,2.33,25.5,11111222 
SCCF RECON,ioos:station:SCCF:13:1,2019-03-16T19:00:00Z,26.5255,-82.0032,2.33,25.66,11111222 
SCCF RECON,ioos:station:SCCF:13:1,2019-03-16T20:00:00Z,26.5255,-82.0032,2.33,25.42,11111222 
SCCF RECON,ioos:station:SCCF:13:1,2019-03-16T21:00:00Z,26.5255,-82.0032,2.33,26.09,11111222 
SCCF RECON,ioos:station:SCCF:13:1,2019-03-16T22:00:00Z,26.5255,-82.0032,2.33,25.83,11111222 
SCCF RECON,ioos:station:SCCF:13:1,2019-03-16T23:00:00Z,26.5255,-82.0032,2.33,25.96,11111222 
SCCF RECON,ioos:station:SCCF:13:1,2019-03-17T04:00:00Z,26.5255,-82.0032,2.33,25.29,11111222 
SCCF RECON,ioos:station:SCCF:13:1,2019-03-17T05:00:00Z,26.5255,-82.0032,2.33,25.35,11111222 
SCCF RECON,ioos:station:SCCF:13:1,2019-03-17T06:00:00Z,26.5255,-82.0032,2.33,25.36,11111222 
SCCF RECON,ioos:station:SCCF:13:1,2019-03-17T07:00:00Z,26.5255,-82.0032,2.33,25.37,11111222 
SCCF RECON,ioos:station:SCCF:13:1,2019-03-17T08:00:00Z,26.5255,-82.0032,2.33,25.38,11111222 
SCCF RECON,ioos:station:SCCF:13:1,2019-03-17T09:00:00Z,26.5255,-82.0032,2.33,25.35,11111222 
SCCF RECON,ioos:station:SCCF:13:1,2019-03-17T10:00:00Z,26.5255,-82.0032,2.33,25.35,11111222 
SCCF RECON,ioos:station:SCCF:13:1,2019-03-17T11:00:00Z,26.5255,-82.0032,2.33,25.28,11111222 
SCCF RECON,ioos:station:SCCF:13:1,2019-03-17T12:00:00Z,26.5255,-82.0032,2.33,25.21,11111222 
SCCF RECON,ioos:station:SCCF:13:1,2019-03-17T13:00:00Z,26.5255,-82.0032,2.33,25.12,11111222 
SCCF RECON,ioos:station:SCCF:13:1,2019-03-17T14:00:00Z,26.5255,-82.0032,2.33,24.98,11111222 
SCCF RECON,ioos:station:SCCF:13:1,2019-03-17T15:00:00Z,26.5255,-82.0032,2.33,25.12,11111222 
SCCF RECON,ioos:station:SCCF:13:1,2019-03-17T16:00:00Z,26.5255,-82.0032,2.33,25.43,11111222 
SCCF RECON,ioos:station:SCCF:13:1,2019-03-17T17:00:00Z,26.5255,-82.0032,2.33,25.53,11111222 
SCCF RECON,ioos:station:SCCF:13:1,2019-03-17T18:00:00Z,26.5255,-82.0032,2.33,25.6,11111222 
SCCF RECON,ioos:station:SCCF:13:1,2019-03-17T19:00:00Z,26.5255,-82.0032,2.33,26.07,11111222 
SCCF RECON,ioos:station:SCCF:13:1,2019-03-17T20:00:00Z,26.5255,-82.0032,2.33,25.79,11111222 
SCCF RECON,ioos:station:SCCF:13:1,2019-03-17T21:00:00Z,26.5255,-82.0032,2.33,26.36,11111222 
SCCF RECON,ioos:station:SCCF:13:1,2019-03-17T22:00:00Z,26.5255,-82.0032,2.33,26.25,11111222 
SCCF RECON,ioos:station:SCCF:13:1,2019-03-17T23:00:00Z,26.5255,-82.0032,2.33,26.25,11111222 
SCCF RECON,ioos:station:SCCF:13:1,2019-03-18T04:00:00Z,26.5255,-82.0032,2.33,25.51,11111222 
SCCF RECON,ioos:station:SCCF:13:1,2019-03-18T05:00:00Z,26.5255,-82.0032,2.33,25.61,11111222 
SCCF RECON,ioos:station:SCCF:13:1,2019-03-18T06:00:00Z,26.5255,-82.0032,2.33,25.44,11111222 
SCCF RECON,ioos:station:SCCF:13:1,2019-03-18T07:00:00Z,26.5255,-82.0032,2.33,25.01,11111222 
SCCF RECON,ioos:station:SCCF:13:1,2019-03-18T08:00:00Z,26.5255,-82.0032,2.33,24.94,11111222 
SCCF RECON,ioos:station:SCCF:13:1,2019-03-18T09:00:00Z,26.5255,-82.0032,2.33,24.85,11111222 
SCCF RECON,ioos:station:SCCF:13:1,2019-03-18T10:00:00Z,26.5255,-82.0032,2.33,24.91,11111222 
SCCF RECON,ioos:station:SCCF:13:1,2019-03-18T11:00:00Z,26.5255,-82.0032,2.33,24.9,11111222 
SCCF RECON,ioos:station:SCCF:13:1,2019-03-18T12:00:00Z,26.5255,-82.0032,2.33,24.79,11111222 
SCCF RECON,ioos:station:SCCF:13:1,2019-03-18T13:00:00Z,26.5255,-82.0032,2.33,24.65,11111222 
SCCF RECON,ioos:station:SCCF:13:1,2019-03-18T14:00:00Z,26.5255,-82.0032,2.33,24.61,11111222 
SCCF RECON,ioos:station:SCCF:13:1,2019-03-18T15:00:00Z,26.5255,-82.0032,2.33,24.24,11111222 
SCCF RECON,ioos:station:SCCF:13:1,2019-03-18T16:00:00Z,26.5255,-82.0032,2.33,24.59,11111222 
SCCF RECON,ioos:station:SCCF:13:1,2019-03-18T17:00:00Z,26.5255,-82.0032,2.33,24.6,11111222 
SCCF RECON,ioos:station:SCCF:13:1,2019-03-18T18:00:00Z,26.5255,-82.0032,2.33,24.67,11111222 
SCCF RECON,ioos:station:SCCF:13:1,2019-03-18T19:00:00Z,26.5255,-82.0032,2.33,24.74,11111222 
SCCF RECON,ioos:station:SCCF:13:1,2019-03-18T20:00:00Z,26.5255,-82.0032,2.33,24.73,11111222 
SCCF RECON,ioos:station:SCCF:13:1,2019-03-18T21:00:00Z,26.5255,-82.0032,2.33,24.83,11111222 
SCCF RECON,ioos:station:SCCF:13:1,2019-03-18T22:00:00Z,26.5255,-82.0032,2.33,24.81,11111222 
SCCF RECON,ioos:station:SCCF:13:1,2019-03-18T23:00:00Z,26.5255,-82.0032,2.33,24.74,11111222 
SCCF RECON,ioos:station:SCCF:13:1,2019-03-19T04:00:00Z,26.5255,-82.0032,2.33,24.34,11111222 
SCCF RECON,ioos:station:SCCF:13:1,2019-03-19T05:00:00Z,26.5255,-82.0032,2.33,24.12,11111222 
SCCF RECON,ioos:station:SCCF:13:1,2019-03-19T06:00:00Z,26.5255,-82.0032,2.33,24.1,11111222 
SCCF RECON,ioos:station:SCCF:13:1,2019-03-19T07:00:00Z,26.5255,-82.0032,2.33,23.71,11111222 
SCCF RECON,ioos:station:SCCF:13:1,2019-03-19T08:00:00Z,26.5255,-82.0032,2.33,23.08,11111222 
SCCF RECON,ioos:station:SCCF:13:1,2019-03-19T09:00:00Z,26.5255,-82.0032,2.33,23.01,11111222 
SCCF RECON,ioos:station:SCCF:13:1,2019-03-19T10:00:00Z,26.5255,-82.0032,2.33,23.03,11111222 
SCCF RECON,ioos:station:SCCF:13:1,2019-03-19T11:00:00Z,26.5255,-82.0032,2.33,22.97,11111222 
SCCF RECON,ioos:station:SCCF:13:1,2019-03-19T12:00:00Z,26.5255,-82.0032,2.33,22.96,11111222 
SCCF RECON,ioos:station:SCCF:13:1,2019-03-19T13:00:00Z,26.5255,-82.0032,2.33,22.8,11111222 
SCCF RECON,ioos:station:SCCF:13:1,2019-03-19T14:00:00Z,26.5255,-82.0032,2.33,22.67,11111222 
SCCF RECON,ioos:station:SCCF:13:1,2019-03-19T15:00:00Z,26.5255,-82.0032,2.33,22.32,11111222 
SCCF RECON,ioos:station:SCCF:13:1,2019-03-19T16:00:00Z,26.5255,-82.0032,2.33,21.77,11111222 
SCCF RECON,ioos:station:SCCF:13:1,2019-03-19T17:00:00Z,26.5255,-82.0032,2.33,22.26,11111222 
SCCF RECON,ioos:station:SCCF:13:1,2019-03-19T18:00:00Z,26.5255,-82.0032,2.33,22.16,11111222 
SCCF RECON,ioos:station:SCCF:13:1,2019-03-19T19:00:00Z,26.5255,-82.0032,2.33,22.37,11111222 
SCCF RECON,ioos:station:SCCF:13:1,2019-03-19T20:00:00Z,26.5255,-82.0032,2.33,22.25,11111222 
SCCF RECON,ioos:station:SCCF:13:1,2019-03-19T21:00:00Z,26.5255,-82.0032,2.33,22.27,11111222 
SCCF RECON,ioos:station:SCCF:13:1,2019-03-19T22:00:00Z,26.5255,-82.0032,2.33,22.09,11111222 
SCCF RECON,ioos:station:SCCF:13:1,2019-03-19T23:00:00Z,26.5255,-82.0032,2.33,21.5,11111222 
SCCF RECON,ioos:station:SCCF:13:1,2019-03-20T04:00:00Z,26.5255,-82.0032,2.33,21.71,11111222 
SCCF RECON,ioos:station:SCCF:13:1,2019-03-20T05:00:00Z,26.5255,-82.0032,2.33,21.69,11111222 
SCCF RECON,ioos:station:SCCF:13:1,2019-03-20T06:00:00Z,26.5255,-82.0032,2.33,21.78,11111222 
SCCF RECON,ioos:station:SCCF:13:1,2019-03-20T07:00:00Z,26.5255,-82.0032,2.33,21.77,11111222 
SCCF RECON,ioos:station:SCCF:13:1,2019-03-20T08:00:00Z,26.5255,-82.0032,2.33,21.78,11111222 
SCCF RECON,ioos:station:SCCF:13:1,2019-03-20T09:00:00Z,26.5255,-82.0032,2.33,21.56,11111222 
SCCF RECON,ioos:station:SCCF:13:1,2019-03-20T10:00:00Z,26.5255,-82.0032,2.33,20.99,11111222 
SCCF RECON,ioos:station:SCCF:13:1,2019-03-20T11:00:00Z,26.5255,-82.0032,2.33,20.67,11111222 
SCCF RECON,ioos:station:SCCF:13:1,2019-03-20T12:00:00Z,26.5255,-82.0032,2.33,20.9,11111222 
SCCF RECON,ioos:station:SCCF:13:1,2019-03-20T13:00:00Z,26.5255,-82.0032,2.33,20.76,11111222 
SCCF RECON,ioos:station:SCCF:13:1,2019-03-20T14:00:00Z,26.5255,-82.0032,2.33,20.87,11111222 
SCCF RECON,ioos:station:SCCF:13:1,2019-03-20T15:00:00Z,26.5255,-82.0032,2.33,20.8,11111222 
SCCF RECON,ioos:station:SCCF:13:1,2019-03-20T16:00:00Z,26.5255,-82.0032,2.33,20.96,11111222 
SCCF RECON,ioos:station:SCCF:13:1,2019-03-20T17:00:00Z,26.5255,-82.0032,2.33,21.37,11111222 
SCCF RECON,ioos:station:SCCF:13:1,2019-03-20T18:00:00Z,26.5255,-82.0032,2.33,21.59,11111222 
SCCF RECON,ioos:station:SCCF:13:1,2019-03-20T19:00:00Z,26.5255,-82.0032,2.33,21.71,11111222 
SCCF RECON,ioos:station:SCCF:13:1,2019-03-20T20:00:00Z,26.5255,-82.0032,2.33,21.86,11111222 
SCCF RECON,ioos:station:SCCF:13:1,2019-03-20T21:00:00Z,26.5255,-82.0032,2.33,21.9,11111222 
SCCF RECON,ioos:station:SCCF:13:1,2019-03-20T22:00:00Z,26.5255,-82.0032,2.33,21.96,11111222 
SCCF RECON,ioos:station:SCCF:13:1,2019-03-20T23:00:00Z,26.5255,-82.0032,2.33,22.03,11111222 
SCCF RECON,ioos:station:SCCF:13:1,2019-03-21T04:00:00Z,26.5255,-82.0032,2.33,21.81,11111222 
SCCF RECON,ioos:station:SCCF:13:1,2019-03-21T05:00:00Z,26.5255,-82.0032,2.33,21.78,11111222 
SCCF RECON,ioos:station:SCCF:13:1,2019-03-21T06:00:00Z,26.5255,-82.0032,2.33,21.71,11111222 
SCCF RECON,ioos:station:SCCF:13:1,2019-03-21T07:00:00Z,26.5255,-82.0032,2.33,21.67,11111222 
SCCF RECON,ioos:station:SCCF:13:1,2019-03-21T08:00:00Z,26.5255,-82.0032,2.33,21.62,11111222 
SCCF RECON,ioos:station:SCCF:13:1,2019-03-21T09:00:00Z,26.5255,-82.0032,2.33,21.59,11111222 
SCCF RECON,ioos:station:SCCF:13:1,2019-03-21T10:00:00Z,26.5255,-82.0032,2.33,21.47,11111222 
SCCF RECON,ioos:station:SCCF:13:1,2019-03-21T11:00:00Z,26.5255,-82.0032,2.33,20.93,11111222 
SCCF RECON,ioos:station:SCCF:13:1,2019-03-21T12:00:00Z,26.5255,-82.0032,2.33,20.95,11111222 
SCCF RECON,ioos:station:SCCF:13:1,2019-03-21T13:00:00Z,26.5255,-82.0032,2.33,20.96,11111222 
SCCF RECON,ioos:station:SCCF:13:1,2019-03-21T14:00:00Z,26.5255,-82.0032,2.33,20.92,11111222 
SCCF RECON,ioos:station:SCCF:13:1,2019-03-21T15:00:00Z,26.5255,-82.0032,2.33,21.09,11111222 
SCCF RECON,ioos:station:SCCF:13:1,2019-03-21T16:00:00Z,26.5255,-82.0032,2.33,21.26,11111222 
SCCF RECON,ioos:station:SCCF:13:1,2019-03-21T17:00:00Z,26.5255,-82.0032,2.33,21.58,11111222 
SCCF RECON,ioos:station:SCCF:13:1,2019-03-21T18:00:00Z,26.5255,-82.0032,2.33,21.81,11111222 
SCCF RECON,ioos:station:SCCF:13:1,2019-03-21T19:00:00Z,26.5255,-82.0032,2.33,21.94,11111222 
SCCF RECON,ioos:station:SCCF:13:1,2019-03-21T20:00:00Z,26.5255,-82.0032,2.33,22.09,11111222 
SCCF RECON,ioos:station:SCCF:13:1,2019-03-21T21:00:00Z,26.5255,-82.0032,2.33,22.12,11111222 
SCCF RECON,ioos:station:SCCF:13:1,2019-03-21T22:00:00Z,26.5255,-82.0032,2.33,22.16,11111222 
SCCF RECON,ioos:station:SCCF:13:1,2019-03-21T23:00:00Z,26.5255,-82.0032,2.33,22.13,11111222 
SCCF RECON,ioos:station:SCCF:13:1,2019-03-22T04:00:00Z,26.5255,-82.0032,2.33,21.35,11111222 
SCCF RECON,ioos:station:SCCF:13:1,2019-03-22T05:00:00Z,26.5255,-82.0032,2.33,21.45,11111222 
SCCF RECON,ioos:station:SCCF:13:1,2019-03-22T06:00:00Z,26.5255,-82.0032,2.33,21.47,11111222 
SCCF RECON,ioos:station:SCCF:13:1,2019-03-22T07:00:00Z,26.5255,-82.0032,2.33,21.33,11111222 
SCCF RECON,ioos:station:SCCF:13:1,2019-03-22T08:00:00Z,26.5255,-82.0032,2.33,21.26,11111222 
SCCF RECON,ioos:station:SCCF:13:1,2019-03-22T09:00:00Z,26.5255,-82.0032,2.33,21.25,11111222 
SCCF RECON,ioos:station:SCCF:13:1,2019-03-22T10:00:00Z,26.5255,-82.0032,2.33,21.08,11111222 
SCCF RECON,ioos:station:SCCF:13:1,2019-03-22T11:00:00Z,26.5255,-82.0032,2.33,20.84,11111222 
SCCF RECON,ioos:station:SCCF:13:1,2019-03-22T12:00:00Z,26.5255,-82.0032,2.33,20.49,11111222 
SCCF RECON,ioos:station:SCCF:13:1,2019-03-22T13:00:00Z,26.5255,-82.0032,2.33,20.66,11111222 
SCCF RECON,ioos:station:SCCF:13:1,2019-03-22T14:00:00Z,26.5255,-82.0032,2.33,20.51,11111222 
SCCF RECON,ioos:station:SCCF:13:1,2019-03-22T15:00:00Z,26.5255,-82.0032,2.33,20.78,11111222 
SCCF RECON,ioos:station:SCCF:13:1,2019-03-22T16:00:00Z,26.5255,-82.0032,2.33,20.66,11111222 
SCCF RECON,ioos:station:SCCF:13:1,2019-03-22T17:00:00Z,26.5255,-82.0032,2.33,20.93,11111222 
SCCF RECON,ioos:station:SCCF:13:1,2019-03-22T18:00:00Z,26.5255,-82.0032,2.33,21.22,11111222 
SCCF RECON,ioos:station:SCCF:13:1,2019-03-22T19:00:00Z,26.5255,-82.0032,2.33,21.3,11111222 
SCCF RECON,ioos:station:SCCF:13:1,2019-03-22T20:00:00Z,26.5255,-82.0032,2.33,21.36,11111222 
SCCF RECON,ioos:station:SCCF:13:1,2019-03-22T21:00:00Z,26.5255,-82.0032,2.33,21.47,11111222 
SCCF RECON,ioos:station:SCCF:13:1,2019-03-22T22:00:00Z,26.5255,-82.0032,2.33,21.49,11111222 
SCCF RECON,ioos:station:SCCF:13:1,2019-03-22T23:00:00Z,26.5255,-82.0032,2.33,21.63,11111222 
SCCF RECON,ioos:station:SCCF:13:1,2019-03-23T04:00:00Z,26.5255,-82.0032,2.33,21.25,11111222 
SCCF RECON,ioos:station:SCCF:13:1,2019-03-23T05:00:00Z,26.5255,-82.0032,2.33,21.11,11111222 
SCCF RECON,ioos:station:SCCF:13:1,2019-03-23T06:00:00Z,26.5255,-82.0032,2.33,21.15,11111222 
SCCF RECON,ioos:station:SCCF:13:1,2019-03-23T07:00:00Z,26.5255,-82.0032,2.33,21.13,11111222 
SCCF RECON,ioos:station:SCCF:13:1,2019-03-23T08:00:00Z,26.5255,-82.0032,2.33,20.94,11111222 
SCCF RECON,ioos:station:SCCF:13:1,2019-03-23T09:00:00Z,26.5255,-82.0032,2.33,20.96,11111222 
SCCF RECON,ioos:station:SCCF:13:1,2019-03-23T10:00:00Z,26.5255,-82.0032,2.33,20.87,11111222 
SCCF RECON,ioos:station:SCCF:13:1,2019-03-23T11:00:00Z,26.5255,-82.0032,2.33,20.73,11111222 
SCCF RECON,ioos:station:SCCF:13:1,2019-03-23T12:00:00Z,26.5255,-82.0032,2.33,20.57,11111222 
SCCF RECON,ioos:station:SCCF:13:1,2019-03-23T13:00:00Z,26.5255,-82.0032,2.33,20.09,11111222 
SCCF RECON,ioos:station:SCCF:13:1,2019-03-23T14:00:00Z,26.5255,-82.0032,2.33,20.26,11111222 
SCCF RECON,ioos:station:SCCF:13:1,2019-03-23T15:00:00Z,26.5255,-82.0032,2.33,20.38,11111222 
SCCF RECON,ioos:station:SCCF:13:1,2019-03-23T16:00:00Z,26.5255,-82.0032,2.33,20.42,11111222 
SCCF RECON,ioos:station:SCCF:13:1,2019-03-23T17:00:00Z,26.5255,-82.0032,2.33,20.79,11111222 
SCCF RECON,ioos:station:SCCF:13:1,2019-03-23T18:00:00Z,26.5255,-82.0032,2.33,21.07,11111222 
SCCF RECON,ioos:station:SCCF:13:1,2019-03-23T19:00:00Z,26.5255,-82.0032,2.33,21.42,11111222 
SCCF RECON,ioos:station:SCCF:13:1,2019-03-23T20:00:00Z,26.5255,-82.0032,2.33,21.59,11111222 
SCCF RECON,ioos:station:SCCF:13:1,2019-03-23T21:00:00Z,26.5255,-82.0032,2.33,21.81,11111222 
SCCF RECON,ioos:station:SCCF:13:1,2019-03-23T22:00:00Z,26.5255,-82.0032,2.33,21.89,11111222 
SCCF RECON,ioos:station:SCCF:13:1,2019-03-23T23:00:00Z,26.5255,-82.0032,2.33,21.89,11111222 
SCCF RECON,ioos:station:SCCF:13:1,2019-03-24T04:00:00Z,26.5255,-82.0032,2.33,21.77,11111222 
SCCF RECON,ioos:station:SCCF:13:1,2019-03-24T05:00:00Z,26.5255,-82.0032,2.33,21.67,11111222 
SCCF RECON,ioos:station:SCCF:13:1,2019-03-24T06:00:00Z,26.5255,-82.0032,2.33,21.48,11111222 
SCCF RECON,ioos:station:SCCF:13:1,2019-03-24T07:00:00Z,26.5255,-82.0032,2.33,21.44,11111222 
SCCF RECON,ioos:station:SCCF:13:1,2019-03-24T08:00:00Z,26.5255,-82.0032,2.33,21.46,11111222 
SCCF RECON,ioos:station:SCCF:13:1,2019-03-24T09:00:00Z,26.5255,-82.0032,2.33,21.37,11111222 
SCCF RECON,ioos:station:SCCF:13:1,2019-03-24T10:00:00Z,26.5255,-82.0032,2.33,21.28,11111222 
SCCF RECON,ioos:station:SCCF:13:1,2019-03-24T11:00:00Z,26.5255,-82.0032,2.33,21.3,11111222 
SCCF RECON,ioos:station:SCCF:13:1,2019-03-24T12:00:00Z,26.5255,-82.0032,2.33,21.19,11111222 
SCCF RECON,ioos:station:SCCF:13:1,2019-03-24T13:00:00Z,26.5255,-82.0032,2.33,20.89,11111222 
SCCF RECON,ioos:station:SCCF:13:1,2019-03-24T14:00:00Z,26.5255,-82.0032,2.33,21.07,11111222 
SCCF RECON,ioos:station:SCCF:13:1,2019-03-24T15:00:00Z,26.5255,-82.0032,2.33,21.3,11111222 
SCCF RECON,ioos:station:SCCF:13:1,2019-03-24T16:00:00Z,26.5255,-82.0032,2.33,21.63,11111222 
SCCF RECON,ioos:station:SCCF:13:1,2019-03-24T17:00:00Z,26.5255,-82.0032,2.33,21.78,11111222 
SCCF RECON,ioos:station:SCCF:13:1,2019-03-24T18:00:00Z,26.5255,-82.0032,2.33,21.75,11111222 
SCCF RECON,ioos:station:SCCF:13:1,2019-03-24T19:00:00Z,26.5255,-82.0032,2.33,21.86,11111222 
SCCF RECON,ioos:station:SCCF:13:1,2019-03-24T20:00:00Z,26.5255,-82.0032,2.33,22.29,11111222 
SCCF RECON,ioos:station:SCCF:13:1,2019-03-24T21:00:00Z,26.5255,-82.0032,2.33,22.38,11111222 
SCCF RECON,ioos:station:SCCF:13:1,2019-03-24T22:00:00Z,26.5255,-82.0032,2.33,22.61,11111222 
SCCF RECON,ioos:station:SCCF:13:1,2019-03-24T23:00:00Z,26.5255,-82.0032,2.33,22.74,11111222 
SCCF RECON,ioos:station:SCCF:13:1,2019-03-25T04:00:00Z,26.5255,-82.0032,2.33,22.63,11111222 
SCCF RECON,ioos:station:SCCF:13:1,2019-03-25T05:00:00Z,26.5255,-82.0032,2.33,22.6,11111222 
SCCF RECON,ioos:station:SCCF:13:1,2019-03-25T06:00:00Z,26.5255,-82.0032,2.33,22.6,11111222 
SCCF RECON,ioos:station:SCCF:13:1,2019-03-25T07:00:00Z,26.5255,-82.0032,2.33,22.47,11111222 
SCCF RECON,ioos:station:SCCF:13:1,2019-03-25T08:00:00Z,26.5255,-82.0032,2.33,22.45,11111222 
SCCF RECON,ioos:station:SCCF:13:1,2019-03-25T09:00:00Z,26.5255,-82.0032,2.33,22.43,11111222 
SCCF RECON,ioos:station:SCCF:13:1,2019-03-25T10:00:00Z,26.5255,-82.0032,2.33,22.37,11111222 
SCCF RECON,ioos:station:SCCF:13:1,2019-03-25T11:00:00Z,26.5255,-82.0032,2.33,22.28,11111222 
SCCF RECON,ioos:station:SCCF:13:1,2019-03-25T12:00:00Z,26.5255,-82.0032,2.33,22.18,11111222 
SCCF RECON,ioos:station:SCCF:13:1,2019-03-25T13:00:00Z,26.5255,-82.0032,2.33,22.21,11111222 
SCCF RECON,ioos:station:SCCF:13:1,2019-03-25T14:00:00Z,26.5255,-82.0032,2.33,22.25,11111222 
SCCF RECON,ioos:station:SCCF:13:1,2019-03-25T15:00:00Z,26.5255,-82.0032,2.33,22.28,11111222 
SCCF RECON,ioos:station:SCCF:13:1,2019-03-25T16:00:00Z,26.5255,-82.0032,2.33,22.37,11111222 